{"data":{"norad_id":57234,"intl_designator":"2023-094S","name":"STARLINK-6368","alt_names":[],"object_type":"PAYLOAD","status":"ACTIVE","operator":null,"country":"US","launch_date":"2023-07-07","launch_site_code":"AFWTR","launch_vehicle":null,"mission":null,"orbit_class":"UNKNOWN","rcs_meters":null,"size_class":null,"mass_kg":null,"dimensions":null,"purposes":["comms"],"wikipedia_slug":null,"has_3d_model":false,"image_url":null,"decayed_at":null,"tle_current":{"epoch":"2026-09-20T13:40:58.841472Z","epoch_age_seconds":118272,"freshness":"FRESH","line1":"1 57234U 23094S   26263.57012548 -.00000064  00000+0  71949-5 0  9995","line2":"2 57234  43.0040   9.8106 0001774 272.6424  87.4225 15.27575337176922","mean_motion":15.27575337,"eccentricity":0.0001774,"inclination_deg":43.004,"raan_deg":9.8106,"arg_perigee_deg":272.6424,"mean_anomaly_deg":87.4225,"bstar":7.1949e-6,"rev_number":17692,"period_min":94.26703646761,"perigee_km":481.84588188425,"apogee_km":484.2802356651,"semimajor_km":6861.2000587747,"source":"CELESTRAK","updated_at":"2026-09-21T09:00:33.587155Z"}}}